Find Local Weather

World > North America > United States > Massachusetts

Charlton, Massachusetts Regional Weather

Lat: 42.13N, Lon: 71.97W
Wx Zone: MAZ012
Feedback
Expires:201805230800;;391167
ASUS41 KGYX 230705
RWRGYX
WEATHER ROUNDUP FOR MAINE AND NEW HAMPSHIRE
NATIONAL WEATHER SERVICE GRAY ME
300 AM EDT WED MAY 23 2018


MAZ007-012-024-CTZ003-RIZ002-NYZ038-NYZ072-230800-
SOUTHERN NEW ENGLAND AND NY
  
CITY           SKY/WX    TMP DP  RH WIND       PRES   REMARKS
BOSTON         CLOUDY    54  51  90 SW7       29.88F                  
WORCESTER      CLOUDY    52  52 100 W12       29.87F FOG              
NANTUCKET      CLOUDY    53  53 100 NE6       29.90F FOG              
PROVIDENCE     CLOUDY    54  52  93 SW5       29.89                   
HARTFORD       CLOUDY    55  55 100 S7        29.90F                  
ALBANY         CLOUDY    58  53  84 S8        29.89F                  
NEW YORK CITY  LGT RAIN  59  56  89 CALM      29.91F FOG              
$$


SKY/WX - Weather  TMP - Temperature  DP - Dewpoint  RH - Relative Humidity
WIND - Wind Direction/Speed PRES - Barometric Pressure